Content
SEND FEEDBACK

Daily
Averages
Monthly
Summary
United States of America

CHESTERFIELD, MISSOURI


Home > North America > United States > Missouri
Elevation: 170 meters     Latitude: 38 41N     Longitude: 090 31W

WEATHER
 
SELECT A DAY
Number of Records: 208,273;   Date Range: 1/1/95 - 12/18/14
 
SHARE

PRINT THIS DATA

[ ← Previous Day ]
WEATHER ALMANAC - 14 JANUARY, 2013
[ Next Day → ]
[ °F ]   °C
Weather ElementAverageHighLow
Temperature-5.7 °C-3.3 °C (2:51 pm)-7.8 °C (3:51 am)
Dewpoint-10.7 °C-9.4 °C (4:51 pm)-12.2 °C (7:51 am)
Humidity69.2 %78 % (3:51 am)58 % (12:51 pm)
Barometer1032.2 hPa1034.2 hPa (9:51 am)1031.2 hPa (1:51 am)
Wind Speed8.2 km/h13 km/h (10:51 am)
Weather ElementAverage
Visibility16.1 km
Wind DirectionSSE (166.5 °)

Weather ElementTotal
Precipitation---
Heating Degree Days23.9 (Base 18.3)
Averaged from 23 records on 14 January, 2013
WEATHER CONDITIONS BREAKOUT
WIND DIRECTION BREAKOUT
WEATHER BY HOUR - 14 JANUARY, 2013
[ °F ]   °C
Local TimeTemperatureDewpointHumidityBarometerVisibilityWind DirectionWind SpeedGust SpeedPrecipitationEventsConditions
1:51 AM-7.2 °C-11.1 °C74 %1031.2 hPa16.1 kmNW (310°)9.3 km/hClear
2:51 AM-7.2 °C-11.1 °C74 %1032.2 hPa16.1 kmWNW (300°)7.4 km/hClear
3:51 AM-7.8 °C-11.1 °C78 %1031.5 hPa16.1 kmNNW (330°)7.4 km/hClear
4:51 AM-7.8 °C-11.1 °C78 %1031.5 hPa16.1 kmNW (320°)7.4 km/hClear
5:51 AM-7.8 °C-11.1 °C78 %1031.8 hPa16.1 kmNNW (330°)11.1 km/hClear
6:51 AM-7.8 °C-11.7 °C74 %1031.5 hPa16.1 kmNorth (360°)11.1 km/hClear
7:51 AM-7.2 °C-12.2 °C68 %1031.8 hPa16.1 kmNorth (350°)11.1 km/hScattered Clouds
8:51 AM-6.1 °C-11.7 °C65 %1033.5 hPa16.1 kmNNW (340°)9.3 km/hScattered Clouds
9:51 AM-5.6 °C-12.2 °C60 %1034.2 hPa16.1 kmNNE (20°)11.1 km/hMostly Cloudy
10:51 AM-5 °C-11.7 °C60 %1033.5 hPa16.1 kmNorth (10°)13 km/hOvercast
11:51 AM-5 °C-11.7 °C60 %1033.2 hPa16.1 kmVariable7.4 km/hMostly Cloudy
12:51 PM-3.9 °C-11.1 °C58 %1033.9 hPa16.1 kmNW (310°)7.4 km/hMostly Cloudy
1:51 PM-3.9 °C-11.1 °C58 %1033.2 hPa16.1 kmCalmMostly Cloudy
2:51 PM-3.3 °C-10.6 °C58 %1032.8 hPa16.1 kmVariable7.4 km/hScattered Clouds
3:51 PM-3.3 °C-10.6 °C58 %1032.5 hPa16.1 kmNNE (30°)7.4 km/hScattered Clouds
4:51 PM-4.4 °C-9.4 °C69 %1032.5 hPa16.1 kmNorth (350°)9.3 km/hPartly Cloudy
5:51 PM-5 °C-9.4 °C72 %1032.2 hPa16.1 kmNorth (360°)9.3 km/hClear
6:51 PM-5 °C-9.4 °C72 %1032.2 hPa16.1 kmNorth (10°)9.3 km/hClear
7:51 PM-5 °C-9.4 °C72 %1031.5 hPa16.1 kmNNE (30°)7.4 km/hClear
8:51 PM-5.6 °C-9.4 °C75 %1031.8 hPa16.1 kmNorth (10°)5.6 km/hPartly Cloudy
9:51 PM-5.6 °C-9.4 °C75 %1031.5 hPa16.1 kmNNE (30°)7.4 km/hPartly Cloudy
10:51 PM-6.1 °C-9.4 °C78 %1031.5 hPa16.1 kmNorth (10°)7.4 km/hClear
11:51 PM-6.1 °C-9.4 °C78 %1032.2 hPa16.1 kmNNE (20°)5.6 km/hPartly Cloudy
Hourly data recorded from KSTL, located 0 kilometers away from Chesterfield, Missouri







STORIES FROM OUR PARTNERS